Home   Weather   New York   Past weeks

Flag for USA Past Weather in New York, New York, USA — Yesterday and Last 2 Weeks

Now
58 °F

Sunny.


Feels Like: 56 °F
Forecast: 49 / 62 °F
Wind: 10 mph from Northwest

Location: New York City - Central Park

Current Time: Mar 29, 2017 at 5:00:38 pm

Latest Report: Mar 29, 2017 at 3:51 pm


Visibility: 10 mi

Pressure: 30.03 "Hg

Humidity: 33%

Dew Point: 29 °F

Location of New YorkLocation

Past Weather in New York — Graph

°F

New York Temperature Yesterday

Maximum temperature yesterday: 46 °F (at 12:51 am)
Minimum temperature yesterday: 41 °F (at 6:33 pm)
Average temperature yesterday: 43 °F

High & Low Weather Summary for the Past Weeks

 TemperatureHumidityPressure
High61 °F (Mar 25, 12:51 pm)100% (Mar 27, 5:51 am)30.60 "Hg (Mar 27, 5:51 am)
Low20 °F (Mar 15, 5:51 am)15% (Mar 23, 4:51 pm)29.16 "Hg (Mar 14, 3:08 pm)
Average39 °F57%30.09 "Hg
* Reported Mar 14 3:08 pm — Mar 29 3:51 pm, New York, Weather by CustomWeather, © 2017

Note: Actual official high and low records may vary slightly from our data, if they occured in-between our weather recording intervals... More about our weather records

Advertising

New York Weather History for the Previous 24 Hours

Scroll right to see more
 ConditionsComfort  
Time TempWeatherWind HumidityBarometerVisibility
3:51 pm
Wed, Mar 29
58 °FSunny.10 mph33%30.03 "Hg10 mi
2:51 pm57 °FSunny.8 mph34%30.04 "Hg10 mi
1:51 pm58 °FSunny.N/A36%30.06 "Hg10 mi
12:51 pm57 °FSunny.7 mph44%30.06 "Hg10 mi
11:51 am52 °FScattered clouds.13 mph55%30.07 "Hg10 mi
10:51 am48 °FOvercast.8 mph66%30.08 "Hg10 mi
9:51 am45 °FOvercast.N/A76%30.07 "Hg10 mi
8:51 am45 °FMostly cloudy.6 mph76%30.06 "Hg10 mi
7:51 am44 °FPartly sunny.8 mph79%30.04 "Hg10 mi
6:51 am44 °FOvercast.8 mph79%30.02 "Hg10 mi
5:51 am45 °FOvercast.5 mph80%30.01 "Hg10 mi
4:51 am46 °FOvercast.5 mph86%29.99 "Hg10 mi
4:38 am46 °FMostly cloudy.3 mph86%30.01 "Hg10 mi
3:51 am46 °FOvercast.7 mph89%29.96 "Hg10 mi
2:51 am46 °FOvercast.3 mph89%29.95 "Hg10 mi
1:51 am45 °FOvercast.5 mph93%29.92 "Hg9 mi
12:51 am44 °FFog.No wind96%29.93 "Hg4 mi
11:51 pm
Tue, Mar 28
44 °FMostly cloudy.3 mph96%29.93 "Hg7 mi
11:20 pm44 °FPartly cloudy.5 mph96%29.95 "Hg7 mi
10:32 pm44 °FLight rain. Fog.3 mph96%29.95 "Hg6 mi
10:05 pm43 °FFog.5 mph97%29.95 "Hg6 mi
9:51 pm43 °FLight rain. Fog.5 mph97%29.93 "Hg5 mi
8:51 pm42 °FLight rain. Fog.6 mph96%29.93 "Hg6 mi
7:51 pm41 °FRain. Fog.9 mph96%29.91 "Hg4 mi
6:58 pm41 °FLight rain. Fog.10 mph93%29.93 "Hg5 mi
6:33 pm41 °FRain. Fog.9 mph93%29.92 "Hg2 mi
5:51 pm42 °FLow clouds.8 mph92%29.89 "Hg8 mi
Weather by CustomWeather, © 2017

See weather overviewHow to use our weather pages